Location: Acequia del Cap
(41.7000°N, 0.6167°E)
Time: 01:00:11
(UTC+00:00)

ARIANE 5 R/B - Pass Details

Date: 07 August 2020
Orbit: 749 x 794 km, 98.6° (Epoch: 22 September)

Event Time Altitude Azimuth Distance (km) Brightness Sun altitude
Rises 03:47:42 0° 3° (N) 3,295 6.4 -12.3°
Reaches altitude 10° 03:50:17 10° 352° (N) 2,366 5.4 -11.9°
Maximum altitude 03:54:43 29° 294° (WNW) 1,425 3.6 -11.2°
Enters shadow 03:58:21 14° 241° (WSW) 2,097 4.1 -10.7°
